| time (UTC) | temp F | wind direction | speed knots | gust knots | rain 1hr in | rain 24hr in | rain mn in | humidity % | barometer mb |
| 20260904110005 | 69 | 122 | 2.6 | 5.2 | 0.47 | 1.58 | 1.01 | 99 | 1017.0 |
| 20260904105003 | 69 | 129 | 1.7 | 6.1 | 0.45 | 1.52 | 0.95 | 99 | 1016.8 |
| 20260904104005 | 69 | 178 | 1.7 | 6.1 | 0.39 | 1.39 | 0.82 | 99 | 1017.3 |
| 20260904102004 | 69 | 202 | 1.7 | 6.1 | 0.29 | 1.20 | 0.63 | 99 | 1016.9 |
| 20260904101004 | 69 | 149 | 2.6 | 5.2 | 0.31 | 1.19 | 0.63 | 99 | 1016.2 |
| 20260904100004 | 69 | 109 | 0.9 | 2.6 | 0.27 | 1.11 | 0.54 | 99 | 1016.9 |
| 20260904094004 | 69 | 205 | 1.7 | 4.3 | 0.22 | 1.00 | 0.43 | 99 | 1017.4 |
| 20260904093004 | 69 | 313 | 0.9 | 5.2 | 0.17 | 0.92 | 0.35 | 99 | 1017.8 |
| 20260904091004 | 69 | 59 | 0.9 | 1.7 | 0.13 | 0.88 | 0.31 | 99 | 1017.0 |
| 20260904090004 | 69 | 90 | 1.7 | 2.6 | 0.09 | 0.84 | 0.28 | 99 | 1017.2 |
| 20260904085004 | 69 | 99 | 1.7 | 4.3 | 0.07 | 0.82 | 0.25 | 99 | 1016.9 |
| 20260904084004 | 69 | 75 | 0.9 | 2.6 | 0.04 | 0.78 | 0.22 | 99 | 1017.5 |
| 20260904083003 | 69 | 6 | 1.7 | 4.3 | 0.01 | 0.75 | 0.18 | 99 | 1017.4 |
| 20260904082004 | 69 | 34 | 1.7 | 2.6 | 0.02 | 0.75 | 0.18 | 99 | 1017.3 |
| 20260904081003 | 69 | 24 | 1.7 | 4.3 | 0.02 | 0.75 | 0.18 | 99 | 1016.3 |
| 20260904080004 | 69 | 52 | 1.7 | 2.6 | 0.04 | 0.75 | 0.18 | 99 | 1015.8 |
| 20260904075004 | 69 | 71 | 0.9 | 4.3 | 0.18 | 0.75 | 0.18 | 99 | 1015.5 |
| 20260904074004 | 69 | 39 | 1.7 | 2.6 | 0.18 | 0.74 | 0.18 | 99 | 1015.6 |
| 20260904073004 | 69 | 103 | 1.7 | 4.3 | 0.17 | 0.74 | 0.17 | 99 | 1017.0 |
| 20260904072004 | 69 | 12 | 0.9 | 4.3 | 0.17 | 0.73 | 0.17 | 99 | 1017.2 |
| 20260904071004 | 69 | 20 | 2.6 | 8.7 | 0.16 | 0.72 | 0.16 | 99 | 1016.9 |
| 20260904070004 | 69 | 333 | 4.3 | 8.7 | 0.14 | 0.71 | 0.14 | 99 | 1017.2 |
| 20260904065004 | 69 | 296 | 3.5 | 7.0 | 0.00 | 0.57 | 0.00 | 99 | 1017.0 |
| 20260904064005 | 69 | 320 | 1.7 | 2.6 | 0.00 | 0.57 | 0.00 | 99 | 1016.5 |
| 20260904063004 | 69 | 88 | 1.7 | 2.6 | 0.00 | 0.57 | 0.00 | 99 | 1015.8 |
| 20260904062004 | 69 | 260 | 0.9 | 2.6 | 0.00 | 0.57 | 0.00 | 99 | 1016.2 |
| 20260904061004 | 68 | 121 | 0.9 | 4.3 | 0.00 | 0.57 | 0.00 | 99 | 1016.0 |
| 20260904060005 | 69 | 77 | 1.7 | 4.3 | 0.00 | 0.57 | 0.00 | 99 | 1016.4 |
| 20260904054004 | 68 | 84 | 1.7 | 4.3 | 0.00 | 0.57 | 0.00 | 99 | 1016.2 |
| 20260904052003 | 68 | 102 | 1.7 | 5.2 | 0.02 | 0.57 | 0.00 | 99 | 1016.9 |
| 20260904051003 | 68 | 60 | 1.7 | 4.3 | 0.02 | 0.57 | 0.00 | 99 | 1017.0 |
| 20260904050004 | 68 | 83 | 1.7 | 5.2 | 0.02 | 0.57 | 0.00 | 99 | 1017.3 |
| 20260904045004 | 68 | 139 | 1.7 | 2.6 | 0.02 | 0.57 | 0.57 | 99 | 1018.0 |
| 20260904044004 | 68 | 96 | 1.7 | 4.3 | 0.01 | 0.56 | 0.56 | 99 | 1017.7 |
| 20260904043005 | 68 | 134 | 1.7 | 4.3 | 0.00 | 0.55 | 0.55 | 99 | 1019.1 |
| 20260904042003 | 68 | 295 | 3.5 | 5.2 | 0.00 | 0.55 | 0.55 | 99 | 1019.5 |
| 20260904041004 | 68 | 129 | 1.7 | 2.6 | 0.00 | 0.55 | 0.55 | 99 | 1018.3 |
| 20260904040004 | 68 | 84 | 0.9 | 2.6 | 0.02 | 0.55 | 0.55 | 99 | 1018.3 |
| 20260904035004 | 68 | 32 | 0.9 | 4.3 | 0.04 | 0.55 | 0.55 | 99 | 1018.5 |
| 20260904034003 | 68 | 61 | 1.7 | 6.1 | 0.06 | 0.55 | 0.55 | 99 | 1017.8 |
| 20260904033004 | 68 | 76 | 0.9 | 5.2 | 0.07 | 0.55 | 0.55 | 99 | 1017.8 |
| 20260904032004 | 69 | 75 | 1.7 | 5.2 | 0.07 | 0.55 | 0.55 | 99 | 1017.8 |
| 20260904031004 | 69 | 88 | 2.6 | 7.0 | 0.07 | 0.55 | 0.55 | 99 | 1017.7 |
| 20260904030005 | 69 | 109 | 3.5 | 5.2 | 0.06 | 0.54 | 0.54 | 98 | 1018.1 |
| 20260904025004 | 70 | 111 | 2.6 | 4.3 | 0.04 | 0.52 | 0.52 | 96 | 1019.0 |
| 20260904024005 | 70 | 107 | 1.7 | 1.7 | 0.02 | 0.50 | 0.50 | 96 | 1019.4 |
| 20260904023004 | 70 | 139 | 0.9 | 1.7 | 0.00 | 0.48 | 0.48 | 95 | 1019.3 |
| 20260904022004 | 70 | 42 | 0.9 | 4.3 | 0.00 | 0.48 | 0.48 | 95 | 1019.1 |
| 20260904021004 | 70 | 71 | 0.9 | 2.6 | 0.00 | 0.48 | 0.48 | 95 | 1018.8 |
| 20260904015004 | 71 | 69 | 1.7 | 4.3 | 0.00 | 0.48 | 0.48 | 95 | 1018.3 |
| 20260904014004 | 71 | 108 | 1.7 | 4.3 | 0.00 | 0.48 | 0.48 | 95 | 1017.9 |
| 20260904013003 | 71 | 105 | 1.7 | 2.6 | 0.00 | 0.48 | 0.48 | 95 | 1017.9 |
| 20260904012004 | 71 | 100 | 2.6 | 6.1 | 0.00 | 0.48 | 0.48 | 95 | 1017.4 |
| 20260904011004 | 72 | 74 | 0.9 | 1.7 | 0.00 | 0.48 | 0.48 | 95 | 1017.3 |
| 20260904010003 | 72 | 111 | 1.7 | 2.6 | 0.00 | 0.48 | 0.48 | 95 | 1017.3 |
| 20260904005003 | 72 | 80 | 0.9 | 2.6 | 0.00 | 0.48 | 0.48 | 94 | 1017.0 |
| 20260904004002 | 72 | 101 | 0.9 | 4.3 | 0.00 | 0.48 | 0.48 | 94 | 1017.1 |
| 20260904003003 | 72 | 67 | 1.7 | 4.3 | 0.00 | 0.48 | 0.48 | 94 | 1017.3 |
| 20260904002003 | 73 | 25 | 1.7 | 4.3 | 0.00 | 0.48 | 0.48 | 94 | 1017.2 |
| 20260904001003 | 73 | 19 | 1.7 | 4.3 | 0.00 | 0.48 | 0.48 | 93 | 1017.4 |
| 20260904000003 | 73 | 76 | 1.7 | 2.6 | 0.00 | 0.48 | 0.48 | 92 | 1017.3 |
| 20260903235002 | 73 | 50 | 0.9 | 6.1 | 0.00 | 0.48 | 0.48 | 91 | 1017.1 |
| 20260903234002 | 73 | 67 | 1.7 | 4.3 | 0.00 | 0.48 | 0.48 | 91 | 1016.9 |
| 20260903232002 | 74 | 66 | 1.7 | 6.1 | 0.00 | 0.48 | 0.48 | 91 | 1017.1 |
| 20260903231002 | 74 | 335 | 2.6 | 6.1 | 0.00 | 0.48 | 0.48 | 90 | 1017.5 |
| 20260903230004 | 74 | 29 | 2.6 | 7.8 | 0.00 | 0.48 | 0.48 | 90 | 1017.2 |
| 20260903225003 | 75 | 9 | 4.3 | 7.8 | 0.00 | 0.48 | 0.48 | 89 | 1016.9 |
| 20260903221003 | 76 | 5 | 4.3 | 6.1 | 0.00 | 0.48 | 0.48 | 87 | 1016.9 |
| 20260903215003 | 78 | 20 | 2.6 | 4.3 | 0.00 | 0.48 | 0.48 | 85 | 1016.6 |
| 20260903214003 | 79 | 28 | 1.7 | 4.3 | 0.00 | 0.48 | 0.48 | 84 | 1016.3 |
| 20260903213003 | 79 | 10 | 3.5 | 6.1 | 0.00 | 0.48 | 0.48 | 83 | 1016.1 |
| 20260903211003 | 80 | 30 | 1.7 | 7.0 | 0.00 | 0.48 | 0.48 | 83 | 1016.0 |
| 20260903210003 | 78 | 4 | 4.3 | 7.0 | 0.00 | 0.48 | 0.48 | 86 | 1016.4 |
| 20260903205003 | 77 | 359 | 3.5 | 7.8 | 0.00 | 0.48 | 0.48 | 87 | 1016.5 |
| 20260903204003 | 78 | 5 | 2.6 | 7.8 | 0.00 | 0.48 | 0.48 | 87 | 1016.5 |
| 20260903203003 | 79 | 7 | 4.3 | 6.1 | 0.00 | 0.48 | 0.48 | 85 | 1016.8 |
| 20260903202003 | 80 | 9 | 4.3 | 7.8 | 0.00 | 0.48 | 0.48 | 82 | 1016.6 |
| 20260903201003 | 81 | 15 | 2.6 | 6.1 | 0.00 | 0.48 | 0.48 | 78 | 1016.6 |
| 20260903200004 | 79 | 316 | 2.6 | 5.2 | 0.00 | 0.48 | 0.48 | 80 | 1017.1 |
| 20260903195002 | 79 | 101 | 1.7 | 4.3 | 0.00 | 0.48 | 0.48 | 79 | 1017.1 |
| 20260903193003 | 79 | 220 | 2.6 | 7.0 | 0.00 | 0.48 | 0.48 | 81 | 1017.0 |
| 20260903192003 | 80 | 66 | 1.7 | 6.1 | 0.00 | 0.48 | 0.48 | 83 | 1016.9 |
| 20260903191002 | 80 | 204 | 3.5 | 4.3 | 0.00 | 0.48 | 0.48 | 82 | 1017.0 |
| 20260903190002 | 78 | 191 | 1.7 | 6.1 | 0.00 | 0.48 | 0.48 | 85 | 1017.1 |
| 20260903183003 | 76 | 115 | 0.9 | 4.3 | 0.00 | 0.48 | 0.48 | 89 | 1017.1 |
| 20260903182003 | 76 | 71 | 1.7 | 4.3 | 0.00 | 0.48 | 0.48 | 89 | 1017.1 |
| 20260903180003 | 75 | 205 | 1.7 | 2.6 | 0.00 | 0.48 | 0.48 | 91 | 1017.9 |
| 20260903175002 | 73 | 112 | 0.9 | 2.6 | 0.00 | 0.48 | 0.48 | 96 | 1017.6 |
| 20260903174003 | 73 | 73 | 0.9 | 1.7 | 0.00 | 0.48 | 0.48 | 96 | 1018.1 |
| 20260903173003 | 73 | 80 | 0.9 | 5.2 | 0.00 | 0.48 | 0.48 | 97 | 1017.6 |
| 20260903172003 | 72 | 48 | 0.9 | 4.3 | 0.00 | 0.48 | 0.48 | 98 | 1017.0 |
| 20260903171003 | 72 | 10 | 4.3 | 7.8 | 0.00 | 0.48 | 0.48 | 99 | 1017.0 |
| 20260903170004 | 72 | 18 | 0.9 | 4.3 | 0.00 | 0.48 | 0.48 | 99 | 1016.7 |
| 20260903165003 | 71 | 82 | 0.9 | 4.3 | 0.04 | 0.48 | 0.48 | 99 | 1016.4 |
| 20260903164003 | 71 | 86 | 1.7 | 5.2 | 0.22 | 0.48 | 0.48 | 99 | 1016.9 |
| 20260903163003 | 70 | 21 | 1.7 | 7.0 | 0.27 | 0.48 | 0.48 | 99 | 1017.2 |
| 20260903162003 | 70 | 35 | 1.7 | 5.2 | 0.27 | 0.48 | 0.48 | 99 | 1017.4 |
| 20260903161003 | 69 | 37 | 1.7 | 4.3 | 0.31 | 0.48 | 0.48 | 99 | 1017.7 |
| 20260903160002 | 69 | 335 | 0.9 | 4.3 | 0.41 | 0.48 | 0.48 | 99 | 1017.7 |
| 20260903155002 | 68 | 97 | 1.7 | 5.2 | 0.44 | 0.44 | 0.44 | 99 | 1018.2 |
| 20260903154002 | 69 | 135 | 1.7 | 4.3 | 0.25 | 0.25 | 0.25 | 99 | 1018.3 |
| 20260903153003 | 69 | 304 | 2.6 | 5.2 | 0.20 | 0.20 | 0.20 | 99 | 1018.2 |
| 20260903152003 | 69 | 324 | 2.6 | 4.3 | 0.20 | 0.20 | 0.20 | 98 | 1017.3 |
| 20260903151002 | 69 | 89 | 2.6 | 6.1 | 0.17 | 0.17 | 0.17 | 97 | 1017.6 |
| 20260903150003 | 71 | 246 | 0.9 | 2.6 | 0.07 | 0.07 | 0.07 | 94 | 1017.0 |
| 20260903145002 | 72 | 280 | 1.7 | 2.6 | 0.00 | 0.00 | 0.00 | 89 | 1016.9 |
| 20260903144003 | 72 | 85 | 1.7 | 4.3 | 0.00 | 0.00 | 0.00 | 89 | 1016.4 |
| 20260903142003 | 72 | 126 | 0.9 | 1.7 | 0.00 | 0.00 | 0.00 | 86 | 1016.8 |
| 20260903141003 | 73 | 77 | 0.9 | 4.3 | 0.00 | 0.00 | 0.00 | 85 | 1016.8 |
| 20260903140003 | 73 | 99 | 1.7 | 4.3 | 0.00 | 0.00 | 0.00 | 85 | 1016.9 |
| 20260903135003 | 73 | 44 | 1.7 | 2.6 | 0.00 | 0.00 | 0.00 | 85 | 1016.9 |
| 20260903134002 | 73 | 93 | 1.7 | 2.6 | 0.00 | 0.00 | 0.00 | 87 | 1016.5 |
| 20260903133003 | 73 | 93 | 1.7 | 4.3 | 0.00 | 0.00 | 0.00 | 87 | 1016.5 |
| 20260903132003 | 72 | 61 | 0.9 | 4.3 | 0.00 | 0.00 | 0.00 | 88 | 1016.3 |
| 20260903131002 | 72 | 89 | 1.7 | 4.3 | 0.00 | 0.01 | 0.00 | 90 | 1016.1 |
| 20260903130002 | 71 | 84 | 2.6 | 6.1 | 0.00 | 0.02 | 0.00 | 92 | 1016.1 |
| 20260903125003 | 71 | 66 | 1.7 | 6.1 | 0.00 | 0.02 | 0.00 | 95 | 1016.0 |
| 20260903124003 | 70 | 57 | 6.1 | 10.4 | 0.00 | 0.02 | 0.00 | 96 | 1016.4 |
| 20260903122002 | 70 | 129 | 2.6 | 6.1 | 0.00 | 0.02 | 0.00 | 97 | 1016.5 |
| 20260903121003 | 70 | 110 | 1.7 | 5.2 | 0.00 | 0.02 | 0.00 | 97 | 1016.5 |
| 20260903120003 | 70 | 92 | 1.7 | 4.3 | 0.00 | 0.02 | 0.00 | 97 | 1016.1 |
| 20260903115003 | 69 | 94 | 1.7 | 5.2 | 0.00 | 0.02 | 0.00 | 97 | 1016.2 |
| 20260903114003 | 69 | 100 | 1.7 | 4.3 | 0.00 | 0.02 | 0.00 | 97 | 1016.5 |
| 20260903113003 | 69 | 63 | 1.7 | 6.1 | 0.00 | 0.02 | 0.00 | 97 | 1016.4 |
| 20260903112003 | 69 | 86 | 2.6 | 7.8 | 0.00 | 0.02 | 0.00 | 96 | 1016.6 |
| 20260903111002 | 69 | 358 | 2.6 | 4.3 | 0.00 | 0.02 | 0.00 | 96 | 1016.5 |